[ ตารางข้อมูล ] [ Min-Max ] [ วันนี้4 ] [ วันนี้2 ] [ เทียบ3วัน A ] [ เทียบ4วัน B ]   

วันนี้2   [ ◀ ช่วงเก่ากว่า ] [ ช่วงที่ 316 ] [ ช่วงใหม่กว่า ▶ ] [ ล่าสุด ]    [ 3 ชั่วโมง ] [ 6 ชั่วโมง ] [ 12 ชั่วโมง ] [ 24 ชั่วโมง ]   วันนี้2

อุณภูมิตู้ Knockdown4529  ราย 3 ชั่วโมง  ที่วัดได้ ในช่วงวันเวลา 31/03/2026 (05:36) ถึง 31/03/2026 (08:36) 
ความชื้นในตู้ Knockdown4529  ราย 3 ชั่วโมง  ที่วัดได้ ในช่วงวันเวลา 31/03/2026 (05:36) ถึง 31/03/2026 (08:36) 

 
DS18B20SHTC3 
IDDate d/m/Y & Timedata1
สูง
data2
ต่ำ
data3
นอก
temp
pcb
hum
pcb
Time
 7450  31/03/2026 08:36:26  28.9  28.4  30.5  28.6  71.2  08:36 
 7449  31/03/2026 08:31:44  28.8  28.4  30.4  28.4  71.2  08:31 
 7448  31/03/2026 08:27:02  28.7  28.3  30.0  28.4  71.5  08:27 
 7447  31/03/2026 08:22:21  28.5  28.2  29.9  28.1  71.5  08:22 
 7446  31/03/2026 08:17:39  28.4  28.2  29.6  28.2  71.8  08:17 
 7445  31/03/2026 08:12:57  28.2  28.1  29.5  28.2  71.9  08:12 
 7444  31/03/2026 08:08:15  28.1  28.1  29.4  28.1  72.1  08:08 
 7443  31/03/2026 08:03:33  28.0  28.0  29.4  28.1  72.2  08:03 
 7442  31/03/2026 07:58:51  28.0  28.0  29.3  27.7  72.2  07:58 
 7441  31/03/2026 07:54:09  27.9  27.9  28.8  27.7  72.4  07:54 
 7440  31/03/2026 07:49:27  27.9  27.9  28.5  27.7  72.4  07:49 
 7439  31/03/2026 07:44:46  27.9  27.9  28.2  27.7  72.5  07:44 
 7438  31/03/2026 07:40:04  27.9  27.9  28.2  27.7  72.5  07:40 
 7437  31/03/2026 07:35:22  27.9  27.8  27.9  27.7  72.7  07:35 
 7436  31/03/2026 07:30:40  27.9  27.8  27.5  27.6  72.7  07:30 
 7435  31/03/2026 07:25:59  27.8  27.8  27.4  27.7  72.9  07:25 
 7434  31/03/2026 07:21:17  27.8  27.8  27.0  27.6  72.9  07:21 
 7433  31/03/2026 07:16:35  27.8  27.8  26.9  27.7  72.8  07:16 
 7432  31/03/2026 07:11:54  27.9  27.8  26.7  27.6  72.9  07:11 
 7431  31/03/2026 07:07:12  27.8  27.8  26.5  27.7  72.9  07:07 
 7430  31/03/2026 07:02:30  27.9  27.8  26.5  27.6  72.9  07:02 
 7429  31/03/2026 06:57:48  27.9  27.9  26.6  27.6  72.9  06:57 
 7428  31/03/2026 06:53:06  27.9  27.8  26.5  27.6  72.8  06:53 
 7427  31/03/2026 06:48:24  27.9  27.9  26.5  27.6  72.9  06:48 

Data every 5 minute.


ใช้เวลาประมวลผล 0.00266 วินาที